Regional Weather Roundup
Issued by NWS

Home | Current Version | Previous Version | Graphics & Text | Print | Product List | Glossary On
Versions: 1 2 3 4 5 6 7 8 9 10 11 12 13 14 15 16 17 18 19 20 21 22 23 24 25 26 27 28 29 30 31 32 33 34 35 36 37 38 39 40 41 42 43 44 45 46 47 48 49 50
000
ASUS44 KMEG 241600
RWRTN
TENNESSEE HOURLY STATE WEATHER ROUNDUP
NATIONAL WEATHER SERVICE MEMPHIS TN
1100 AM CDT SUN MAY 24 2015

TNZ002-004-019-021-049-052-054-088>092-241700-
WEST TENNESSEE

CITY           SKY/WX    TMP DP  RH WIND       PRES   REMARKS
MEMPHIS INTL   MOSUNNY   82  65  56 S18G29    30.10S
NWS MEMPHIS      N/A     81 N/A N/A MISG        N/A
JACKSON        SUNNY     81  61  50 S13G20    30.14F
DYERSBURG      SUNNY     81  55  41 SE15G22   30.11F
PARIS          SUNNY     79  61  53 S15       30.16F
LEXINGTON      MOSUNNY   79  61  53 SE12      30.17S
$$

TNZ008-025-027-028-033-062-065-066-241700-
NORTH MIDDLE TENNESSEE

CITY           SKY/WX    TMP DP  RH WIND       PRES   REMARKS
NASHVILLE      MOSUNNY   82  59  45 SE12G22   30.23F
CLARKSVILLE    SUNNY     78  61  55 SE12      30.19F
COOKEVILLE     SUNNY     79  61  53 S12       30.29F
CROSSVILLE     MOSUNNY   72  55  55 S13G21    30.36F
$$

TNZ061-075-076-078-094-096-097-241700-
SOUTH MIDDLE TENNESSEE

CITY           SKY/WX    TMP DP  RH WIND       PRES   REMARKS
FAYETTEVILLE   SUNNY    N/A N/A N/A MISG      30.26S
TULLAHOMA      SUNNY     75  57  53 SE12      30.28F
WINCHESTER     SUNNY     75  61  60 S16       30.28F
SHELBYVILLE    SUNNY     79  63  57 SE15      30.26F
$$

TNZ017-018-042-046-047-241700-
NORTHEAST TENNESSEE

CITY           SKY/WX    TMP DP  RH WIND       PRES   REMARKS
TRI CITIES     MOSUNNY   76  50  40 SE6       30.36F
$$

TNZ012-013-036-069-073-074-241700-
CENTRAL EAST TENNESSEE

CITY           SKY/WX    TMP DP  RH WIND       PRES   REMARKS
KNOXVILLE      MOSUNNY   77  53  43 SW6       30.33F
OAK RIDGE      SUNNY     77  54  44 VRB5      30.35F
GATLINBURG     SUNNY     77  52  41 CALM      30.33F
$$

TNZ083-085-099-241700-
SOUTHEAST TENNESSEE

CITY           SKY/WX    TMP DP  RH WIND       PRES   REMARKS
CHATTANOOGA    PTSUNNY   76  60  57 SE13G23   30.33F
$$

SKY/WX REPORTED AS FAIR MEANS FEW OR NO CLOUDS BELOW
12 THOUSAND FEET.



USA.gov is the U.S. government's official web portal to all federal, state and local government web resources and services.